Alabaster, AL

6:35 PM CST on November 23, 2017 (GMT -0600)
Shelby County

Weather History for KEET - November, 2013

Change the Weather History Date:

Monday, November 18, 2013

  Actual Average Record
Temperature  
Mean Temperature 62 °F 54 °F  
Max Temperature 72 °F 65 °F 81 °F (1964)
Min Temperature 52 °F 43 °F 19 °F (1959)
Degree Days  
Heating Degree Days 3 11  
Month to date heating degree days 160 164  
Since 1 July heating degree days 234 287  
Growing Degree Days 13 (Base 50)    
Moisture  
Dew Point 47 °F    
Average Humidity 62    
Maximum Humidity 100    
Minimum Humidity 23    
Precipitation  
Precipitation 0.04 in 0.17 in 1.99 in (2015)
Month to date precipitation 0.90 2.90  
Year to date precipitation 53.13 47.83  
Snow  
Snow 0.00 in - - ()
Month to date snowfall 0.0  
Since 1 July snowfall 0.0  
Since 1 September snowfall 0.0  
Snow Depth 0.00 in    
Sea Level Pressure  
Sea Level Pressure 30.03 in    
Wind  
Wind Speed 7 mph (NNW)    
Max Wind Speed 21 mph    
Max Gust Speed 30 mph    
Visibility 9 miles    
Events Rain    
T = Trace of Precipitation, MM = Missing Value Source: NWS Daily Summary

Daily Weather History Graph

Daily Weather History Graph

Search for Another Location

Airport or City:

Trip Planner

Search our weather history database for the weather conditions in past years. The results will help you decide how hot, cold, wet, or windy it might be!

Date:

Astronomy

Nov. 18, 2013 Rise Set
Actual Time 6:21 AM CST 4:43 PM CST
Civil Twilight 5:54 AM CST 5:09 PM CST
Nautical Twilight 5:24 AM CST 5:39 PM CST
Astronomical Twilight 4:54 AM CST 6:09 PM CST
Moon 5:46 PM CST (11/18) 7:08 AM CST (11/18)
Length of Visible Light 11h 15m
Length of Day
10h 22m
Full, 99% of the Moon is Illuminated
Nov 18
Full
Nov 25
Last Quarter
Dec 2
New
Dec 9
First Quarter
Dec 17
Full

Hourly Weather History & Observations

Time (CST) Temp. Dew Point Humidity Pressure Visibility Wind Dir Wind Speed Gust Speed Precip Events Conditions
12:16 AM 71.1 °F 70.0 °F 96% 29.96 in 6.0 mi SW 6.9 mph - 0.00 in   Overcast
12:53 AM 71.1 °F 70.0 °F 96% 29.94 in 5.0 mi SW 4.6 mph - 0.00 in Rain Light Rain
1:53 AM 72.0 °F 71.1 °F 97% 29.93 in 3.0 mi SW 4.6 mph - 0.03 in Rain Rain
2:17 AM 72.0 °F 71.1 °F 97% 29.94 in 6.0 mi SW 4.6 mph - 0.01 in Rain Light Rain
2:39 AM 64.9 °F 60.1 °F 84% 29.97 in 8.0 mi North 16.1 mph 29.9 mph 0.01 in Rain Light Rain
2:48 AM 62.6 °F 57.2 °F 82% 29.98 in 8.0 mi North 11.5 mph 24.2 mph 0.01 in Rain Light Rain
2:53 AM 62.1 °F 55.9 °F 80% 29.97 in 8.0 mi North 11.5 mph 18.4 mph 0.01 in Rain Light Rain
3:53 AM 61.0 °F 53.1 °F 75% 29.97 in 10.0 mi North 6.9 mph - 0.00 in   Partly Cloudy
4:53 AM 60.1 °F 51.1 °F 72% 29.99 in 10.0 mi North 5.8 mph - N/A   Clear
5:53 AM 55.9 °F 53.1 °F 90% 30.00 in 10.0 mi Calm Calm - N/A   Clear
6:53 AM 54.0 °F 53.1 °F 97% 30.01 in 10.0 mi Calm Calm - N/A   Clear
7:53 AM 62.1 °F 54.0 °F 75% 30.03 in 10.0 mi Calm Calm - N/A   Partly Cloudy
8:53 AM 64.9 °F 51.1 °F 61% 30.04 in 10.0 mi NNW 5.8 mph - N/A   Clear
9:53 AM 68.0 °F 50.0 °F 52% 30.04 in 10.0 mi NNW 3.5 mph - N/A   Clear
10:53 AM 69.1 °F 50.0 °F 51% 30.05 in 10.0 mi NW 11.5 mph - N/A   Clear
11:53 AM 71.1 °F 44.1 °F 38% 30.05 in 10.0 mi North 10.4 mph - N/A   Clear
12:53 PM 71.1 °F 41.0 °F 34% 30.04 in 10.0 mi NNW 10.4 mph 18.4 mph N/A   Clear
1:53 PM 71.1 °F 35.1 °F 27% 30.03 in 10.0 mi North 6.9 mph 19.6 mph N/A   Clear
2:53 PM 70.0 °F 30.9 °F 24% 30.04 in 10.0 mi NNW 11.5 mph 23.0 mph N/A   Clear
3:53 PM 68.0 °F 32.0 °F 26% 30.05 in 10.0 mi NNW 9.2 mph 18.4 mph N/A   Clear
4:53 PM 64.0 °F 30.0 °F 28% 30.07 in 10.0 mi NNW 9.2 mph - N/A   Clear
5:53 PM 61.0 °F 33.1 °F 35% 30.08 in 10.0 mi North 6.9 mph - N/A   Clear
6:53 PM 60.1 °F 34.0 °F 38% 30.10 in 10.0 mi North 10.4 mph - N/A   Clear
7:53 PM 57.9 °F 34.0 °F 41% 30.11 in 10.0 mi North 5.8 mph - N/A   Clear
8:53 PM 57.0 °F 35.1 °F 44% 30.12 in 10.0 mi Variable 6.9 mph - N/A   Clear
9:53 PM 55.0 °F 35.1 °F 47% 30.12 in 10.0 mi North 4.6 mph - N/A   Clear
10:53 PM 54.0 °F 35.1 °F 49% 30.12 in 10.0 mi North 9.2 mph - N/A   Clear
11:53 PM 52.0 °F 35.1 °F 53% 30.12 in 10.0 mi North 9.2 mph - N/A   Clear